When you browse on this site, cookies collect data to enhance your experience and personalize the content and advertising you see.
Visit our Privacy Policy to learn more. By continuing to use the site, you agree to this use of cookies and data.
  • In Portugal
  • List of Countries
  • For 7 days
  • Water Temperature
  • Satellite Maps
  • Weather Map
  • Weather Widgets
  • user-avatar
    Login

    Hourly Weather Stradlice

    Today, 26 June, Wednesday

    Time Temperature Precipitation Wind Pressure Humidity
    00:00 +23°C° 0 mm 2 mps 752 mmHg 95%
    01:00 +21°C° 0 mm 2 mps 752 mmHg 95%
    02:00 +22°C° 0 mm 1 mps 752 mmHg 94%
    03:00 +22°C° 0 mm 1 mps 752 mmHg 94%
    04:00 +22°C° 0 mm 1 mps 751 mmHg 94%
    05:00 +24°C° 0 mm 1 mps 751 mmHg 89%
    06:00 +25°C° 0 mm 1 mps 752 mmHg 84%
    07:00 +27°C° 0 mm 1 mps 752 mmHg 78%
    08:00 +28°C° 0 mm 1 mps 752 mmHg 72%
    09:00 +30°C° 0 mm 1 mps 751 mmHg 67%
    10:00 +31°C° 0 mm 1 mps 751 mmHg 62%
    11:00 +32°C° 0 mm 2 mps 751 mmHg 57%
    12:00 +34°C° 0 mm 2 mps 751 mmHg 52%
    13:00 +35°C° 0 mm 2 mps 750 mmHg 48%
    14:00 +35°C° 0 mm 3 mps 750 mmHg 49%
    15:00 +35°C° 0 mm 3 mps 749 mmHg 50%
    16:00 +35°C° 0 mm 3 mps 749 mmHg 51%
    17:00 +33°C° 0 mm 3 mps 749 mmHg 57%
    18:00 +30°C° 0 mm 3 mps 748 mmHg 63%
    19:00 +29°C° 0 mm 3 mps 748 mmHg 69%
    20:00 +28°C° 0 mm 4 mps 748 mmHg 71%
    21:00 +27°C° 0 mm 4 mps 748 mmHg 74%
    22:00 +26°C° 0 mm 4 mps 747 mmHg 76%
    23:00 +26°C° 0.1 mm 4 mps 747 mmHg 77%

    Tomorrow, 27 June, Thursday

    Time Temperature Precipitation Wind Pressure Humidity
    00:00 +25°C° 0.1 mm 5 mps 747 mmHg 79%
    01:00 +25°C° 0.1 mm 5 mps 747 mmHg 81%
    02:00 +25°C° 1.1 mm 5 mps 747 mmHg 84%
    03:00 +23°C° 1.1 mm 5 mps 746 mmHg 87%
    04:00 +23°C° 1.1 mm 5 mps 746 mmHg 91%
    05:00 +23°C° 0.2 mm 5 mps 746 mmHg 90%
    06:00 +23°C° 0.2 mm 5 mps 746 mmHg 89%
    07:00 +25°C° 0.2 mm 5 mps 746 mmHg 88%
    08:00 +24°C° 0.1 mm 6 mps 746 mmHg 80%
    09:00 +24°C° 0.1 mm 7 mps 746 mmHg 73%
    10:00 +26°C° 0.1 mm 8 mps 747 mmHg 66%
    11:00 +26°C° 0 mm 8 mps 746 mmHg 59%
    12:00 +26°C° 0 mm 8 mps 746 mmHg 53%
    13:00 +26°C° 0 mm 8 mps 746 mmHg 46%
    14:00 +26°C° 0 mm 7 mps 746 mmHg 47%
    15:00 +24°C° 0 mm 7 mps 746 mmHg 49%
    16:00 +24°C° 0 mm 7 mps 745 mmHg 50%
    17:00 +22°C° 0 mm 6 mps 745 mmHg 56%
    18:00 +21°C° 0 mm 5 mps 745 mmHg 62%
    19:00 +20°C° 0 mm 5 mps 745 mmHg 68%
    20:00 +19°C° 0 mm 4 mps 746 mmHg 71%
    21:00 +18°C° 0 mm 4 mps 746 mmHg 73%
    22:00 +17°C° 0 mm 4 mps 747 mmHg 76%
    23:00 +15°C° 0 mm 4 mps 747 mmHg 81%

    Day after tomorrow, 28 June, Friday

    Time Temperature Precipitation Wind Pressure Humidity
    00:00 +15°C° 0 mm 4 mps 747 mmHg 85%
    01:00 +14°C° 0 mm 4 mps 747 mmHg 89%
    02:00 +14°C° 0 mm 4 mps 747 mmHg 92%
    03:00 +13°C° 0 mm 4 mps 747 mmHg 94%
    04:00 +13°C° 0 mm 4 mps 747 mmHg 96%
    05:00 +14°C° 0 mm 4 mps 748 mmHg 86%
    06:00 +15°C° 0 mm 4 mps 748 mmHg 77%
    07:00 +17°C° 0 mm 3 mps 748 mmHg 68%
    08:00 +18°C° 0 mm 4 mps 748 mmHg 62%
    09:00 +19°C° 0 mm 4 mps 748 mmHg 57%
    10:00 +21°C° 0 mm 4 mps 748 mmHg 52%
    11:00 +21°C° 0 mm 4 mps 748 mmHg 52%
    12:00 +21°C° 0 mm 4 mps 748 mmHg 52%
    13:00 +22°C° 0 mm 4 mps 747 mmHg 51%
    14:00 +22°C° 0.1 mm 4 mps 747 mmHg 54%
    15:00 +22°C° 0.1 mm 4 mps 747 mmHg 56%
    16:00 +22°C° 0.1 mm 4 mps 747 mmHg 58%
    17:00 +21°C° 0.3 mm 4 mps 747 mmHg 66%
    18:00 +20°C° 0.3 mm 4 mps 747 mmHg 74%
    19:00 +18°C° 0.3 mm 3 mps 747 mmHg 83%
    20:00 +17°C° 0 mm 3 mps 747 mmHg 82%
    21:00 +14°C° 0 mm 3 mps 748 mmHg 81%
    22:00 +13°C° 0 mm 3 mps 748 mmHg 81%
    23:00 +12°C° 0 mm 3 mps 748 mmHg 82%

    29 June, Saturday

    Time Temperature Precipitation Wind Pressure Humidity
    00:00 +11°C° 0 mm 3 mps 748 mmHg 84%
    01:00 +10°C° 0 mm 3 mps 748 mmHg 85%
    02:00 +10°C° 0 mm 3 mps 749 mmHg 85%
    03:00 +10°C° 0 mm 3 mps 749 mmHg 84%
    04:00 +9°C° 0 mm 2 mps 749 mmHg 83%
    05:00 +11°C° 0 mm 3 mps 749 mmHg 77%
    06:00 +13°C° 0 mm 3 mps 749 mmHg 71%
    07:00 +15°C° 0 mm 4 mps 749 mmHg 64%
    08:00 +18°C° 0 mm 4 mps 749 mmHg 60%
    09:00 +19°C° 0 mm 4 mps 749 mmHg 56%
    10:00 +21°C° 0 mm 5 mps 749 mmHg 52%
    11:00 +22°C° 0 mm 5 mps 749 mmHg 51%
    12:00 +22°C° 0 mm 5 mps 749 mmHg 50%
    13:00 +23°C° 0 mm 5 mps 749 mmHg 49%
    14:00 +23°C° 0 mm 4 mps 748 mmHg 50%
    15:00 +23°C° 0 mm 4 mps 748 mmHg 51%
    16:00 +25°C° 0 mm 4 mps 748 mmHg 51%
    17:00 +22°C° 0 mm 3 mps 748 mmHg 57%
    18:00 +21°C° 0 mm 2 mps 748 mmHg 62%
    19:00 +20°C° 0 mm 2 mps 748 mmHg 68%
    20:00 +20°C° 0 mm 1 mps 748 mmHg 70%
    21:00 +19°C° 0 mm 1 mps 748 mmHg 71%
    22:00 +16°C° 0 mm 1 mps 749 mmHg 73%
    23:00 +16°C° 0 mm 2 mps 749 mmHg 74%

    30 June, Sunday

    Time Temperature Precipitation Wind Pressure Humidity
    00:00 +16°C° 0 mm 2 mps 749 mmHg 74%
    01:00 +15°C° 0 mm 2 mps 749 mmHg 74%
    02:00 +15°C° 0 mm 2 mps 748 mmHg 76%
    03:00 +15°C° 0 mm 2 mps 748 mmHg 77%
    04:00 +14°C° 0 mm 2 mps 748 mmHg 78%
    05:00 +16°C° 0 mm 2 mps 748 mmHg 73%
    06:00 +18°C° 0 mm 2 mps 749 mmHg 68%
    07:00 +21°C° 0 mm 2 mps 749 mmHg 64%
    08:00 +23°C° 0 mm 2 mps 749 mmHg 58%
    09:00 +25°C° 0 mm 2 mps 749 mmHg 53%
    10:00 +27°C° 0 mm 2 mps 749 mmHg 47%
    11:00 +27°C° 0 mm 2 mps 748 mmHg 45%
    12:00 +28°C° 0 mm 2 mps 748 mmHg 44%
    13:00 +29°C° 0 mm 2 mps 748 mmHg 42%
    14:00 +29°C° 0 mm 2 mps 748 mmHg 42%
    15:00 +29°C° 0 mm 2 mps 747 mmHg 43%
    16:00 +30°C° 0 mm 1 mps 747 mmHg 43%
    17:00 +28°C° 0 mm 2 mps 747 mmHg 51%
    18:00 +26°C° 0 mm 2 mps 747 mmHg 59%
    19:00 +25°C° 0 mm 3 mps 746 mmHg 67%
    20:00 +22°C° 0 mm 3 mps 746 mmHg 71%
    21:00 +21°C° 0 mm 2 mps 746 mmHg 75%
    22:00 +20°C° 0 mm 2 mps 746 mmHg 78%
    23:00 +19°C° 0 mm 2 mps 746 mmHg 81%

    1 July, Monday

    Time Temperature Precipitation Wind Pressure Humidity
    00:00 +19°C° 0 mm 2 mps 746 mmHg 83%
    01:00 +18°C° 0 mm 2 mps 746 mmHg 86%
    02:00 +18°C° 0 mm 2 mps 746 mmHg 87%
    03:00 +18°C° 0 mm 2 mps 745 mmHg 88%
    04:00 +17°C° 0 mm 3 mps 745 mmHg 89%
    05:00 +19°C° 0 mm 3 mps 745 mmHg 81%
    06:00 +21°C° 0 mm 3 mps 745 mmHg 74%
    07:00 +24°C° 0 mm 3 mps 745 mmHg 66%
    08:00 +25°C° 0 mm 3 mps 745 mmHg 63%
    09:00 +27°C° 0 mm 3 mps 745 mmHg 60%
    10:00 +29°C° 0 mm 3 mps 745 mmHg 57%
    11:00 +30°C° 0 mm 3 mps 745 mmHg 55%
    12:00 +31°C° 0 mm 3 mps 745 mmHg 53%
    13:00 +33°C° 0 mm 3 mps 744 mmHg 51%
    14:00 +33°C° 0 mm 4 mps 744 mmHg 51%
    15:00 +33°C° 0 mm 4 mps 743 mmHg 52%
    16:00 +33°C° 0 mm 4 mps 743 mmHg 52%
    17:00 +29°C° 1.3 mm 5 mps 743 mmHg 63%
    18:00 +27°C° 1.3 mm 6 mps 742 mmHg 75%
    19:00 +23°C° 1.3 mm 6 mps 742 mmHg 86%
    20:00 +22°C° 1.2 mm 5 mps 742 mmHg 88%
    21:00 +21°C° 1.2 mm 4 mps 743 mmHg 90%
    22:00 +20°C° 1.2 mm 3 mps 743 mmHg 93%
    23:00 +20°C° 0.6 mm 3 mps 743 mmHg 93%
    Show more